User: anonymous   Login
Location: Fort Wayne
(41.1310°N, 85.1290°W)
Time: 09:27:28
(UTC-04:00)
Language:

Cosmos 2082 - Orbit

View from above orbital plane
View from above orbital plane
View from above satellite
View from above satellite

Ground track
Ground track

The orbit data is extracted from the following two-line orbital elements,

1 20624U 90046A   16148.99089273 -.00000310  00000-0 -13741-3 0  9995
2 20624  71.0392 300.7812 0017300 256.6396 103.2798 14.14197637342739
Epoch (UTC): 27 May 2016 23:46:53
Eccentricity: 0.0017300
inclination: 71.0392°
perigee height: 832 km
apogee height: 857 km
right ascension of ascending node: 300.7812°
argument of perigee: 256.6396°
revolutions per day: 14.14197637
mean anomaly at epoch: 103.2798°
orbit number at epoch: 34273

The dashed part of the orbit path shows where the satellite is in the earth's shadow,  

DLR